FW9909 Weather Reports


Display with metric or nautical units.
time (UTC)temp
F
wind
direction
speed
MPH
gust
MPH
rain 1hr
in
rain 24hr
in
rain mn
in
humidity
%
barometer
mb
20260904181041 99 258 3.0 6.0 0.00 0.00 0.00 39 1015.9
20260904180020 98 250 4.0 7.0 0.00 0.00 0.00 39 1016.0
20260904175018 97 254 5.0 10.0 0.00 0.00 0.00 41 1016.2
20260904174015 96 267 3.0 8.0 0.00 0.00 0.00 44 1016.3
20260904173033 96 250 4.0 9.0 0.00 0.00 0.00 44 1016.4
20260904172032 96 257 2.0 5.0 0.00 0.00 0.00 45 1016.5
20260904171050 95 271 5.0 10.0 0.00 0.00 0.00 45 1016.7
20260904170028 95 259 6.0 11.0 0.00 0.00 0.00 45 1016.7
20260904165026 94 240 5.0 9.0 0.00 0.00 0.00 46 1016.6
20260904164045 94 277 2.0 6.0 0.00 0.00 0.00 47 1016.9
20260904163022 94 266 5.0 9.0 0.00 0.00 0.00 47 1016.7
20260904162020 93 247 4.0 8.0 0.00 0.00 0.00 48 1017.0
20260904161019 92 245 3.0 8.0 0.00 0.00 0.00 50 1016.8
20260904160017 93 250 4.0 6.0 0.00 0.00 0.00 49 1016.8
20260904155035 92 229 4.0 8.0 0.00 0.00 0.00 51 1017.0
20260904154113 90 267 4.0 6.0 0.00 0.00 0.00 53 1017.0
20260904153031 90 250 3.0 6.0 0.00 0.00 0.00 53 1017.0
20260904152049 90 253 4.0 8.0 0.00 0.00 0.00 53 1017.0
20260904151028 90 259 3.0 6.0 0.00 0.00 0.00 54 1017.1
20260904150026 89 262 3.0 7.0 0.00 0.00 0.00 56 1017.0
20260904145024 88 272 2.0 5.0 0.00 0.00 0.00 58 1016.8
20260904144022 88 261 2.0 5.0 0.00 0.00 0.00 61 1016.9
20260904143020 88 266 3.0 6.0 0.00 0.00 0.00 60 1016.8
20260904142018 87 253 2.0 5.0 0.00 0.00 0.00 61 1016.9
20260904141016 86 251 2.0 4.0 0.00 0.00 0.00 62 1016.9
20260904140035 85 265 2.0 3.0 0.00 0.00 0.00 64 1016.8
20260904135032 85 255 1.0 3.0 0.00 0.00 0.00 65 1016.9
20260904134030 83 347 2.0 4.0 0.00 0.00 0.00 69 1016.9
20260904133029 81 339 2.0 5.0 0.00 0.00 0.00 72 1016.9
20260904132027 80 3 2.0 4.0 0.00 0.00 0.00 75 1016.9
20260904131025 79 341 3.0 7.0 0.00 0.00 0.00 77 1016.7
20260904130023 78 109 1.0 3.0 0.00 0.00 0.00 79 1016.5
20260904125021 75 68 1.0 3.0 0.00 0.00 0.00 83 1016.5
20260904124019 73 75 2.0 3.0 0.00 0.00 0.00 86 1016.5
20260904123017 73 85 2.0 3.0 0.00 0.00 0.00 88 1016.5
20260904122015 72 88 1.0 3.0 0.00 0.00 0.00 88 1016.4
20260904121034 72 49 2.0 4.0 0.00 0.00 0.00 88 1016.3
20260904120052 72 82 1.0 3.0 0.00 0.00 0.00 87 1016.2
20260904115030 72 69 1.0 3.0 0.00 0.00 0.00 86 1016.1
20260904114028 73 51 2.0 3.0 0.00 0.00 0.00 85 1016.1
20260904113026 73 64 2.0 3.0 0.00 0.00 0.00 84 1016.0
20260904112024 73 91 2.0 4.0 0.00 0.00 0.00 84 1016.1
20260904111022 74 32 3.0 6.0 0.00 0.00 0.00 84 1015.9
20260904110021 74 41 2.0 5.0 0.00 0.00 0.00 83 1015.8
20260904105019 74 61 2.0 4.0 0.00 0.00 0.00 82 1015.7
20260904104017 74 88 2.0 4.0 0.00 0.00 0.00 82 1015.8
20260904103015 74 36 3.0 5.0 0.00 0.00 0.00 82 1015.7
20260904102033 74 48 2.0 3.0 0.00 0.00 0.00 82 1015.8
20260904101051 74 129 2.0 4.0 0.00 0.00 0.00 81 1015.6
20260904100030 74 29 2.0 4.0 0.00 0.00 0.00 81 1015.5
20260904095028 75 30 2.0 4.0 0.00 0.00 0.00 80 1015.4
20260904094026 75 52 1.0 3.0 0.00 0.00 0.00 80 1015.2
20260904093024 75 358 3.0 5.0 0.00 0.00 0.00 79 1015.1
20260904092022 75 110 1.0 3.0 0.00 0.00 0.00 79 1015.2
20260904091020 75 110 1.0 3.0 0.00 0.00 0.00 80 1015.2
20260904090018 75 33 1.0 1.0 0.00 0.00 0.00 79 1015.1
20260904085016 75 50 1.0 2.0 0.00 0.00 0.00 79 1015.0
20260904084115 75 44 1.0 2.0 0.00 0.00 0.00 78 1014.9
20260904083213 75 38 1.0 2.0 0.00 0.00 0.00 77 1014.9
20260904082051 76 335 0.0 1.0 0.00 0.00 0.00 77 1015.0
20260904081029 76 46 1.0 2.0 0.00 0.00 0.00 76 1014.8
20260904080027 77 42 1.0 2.0 0.00 0.00 0.00 75 1014.8
20260904075025 77 49 1.0 2.0 0.00 0.00 0.00 74 1014.9
20260904074023 77 0.0 1.0 0.00 0.00 0.00 73 1014.9
20260904073021 78 173 0.0 2.0 0.00 0.00 0.00 73 1014.8
20260904072020 78 278 0.0 2.0 0.00 0.00 0.00 72 1014.9
20260904071018 79 273 1.0 3.0 0.00 0.00 0.00 71 1014.8
20260904070016 79 271 1.0 3.0 0.00 0.00 0.00 70 1014.9
20260904065034 79 291 1.0 3.0 0.00 0.00 0.00 69 1014.8
20260904064032 79 207 2.0 3.0 0.00 0.00 0.00 69 1014.8
20260904063030 79 273 1.0 2.0 0.00 0.00 0.00 69 1014.9
20260904062028 80 315 1.0 2.0 0.00 0.00 0.00 68 1014.9
20260904061026 80 246 1.0 4.0 0.00 0.00 0.00 68 1014.9
20260904060024 80 199 1.0 3.0 0.00 0.00 0.00 67 1014.9
20260904055023 81 296 1.0 3.0 0.00 0.00 0.00 67 1015.0
20260904054021 81 110 0.0 3.0 0.00 0.00 0.00 66 1015.0
20260904053019 81 108 1.0 3.0 0.00 0.00 0.00 65 1014.9
20260904052017 81 158 1.0 3.0 0.00 0.00 0.00 65 1014.9
20260904051015 81 314 0.0 2.0 0.00 0.00 0.00 64 1014.8
20260904050033 82 185 1.0 2.0 0.00 0.00 0.00 64 1014.7
20260904045031 82 283 1.0 4.0 0.00 0.00 0.00 64 1014.7
20260904044029 82 309 0.0 2.0 0.00 0.00 0.00 63 1014.7
20260904043028 82 210 1.0 4.0 0.00 0.00 0.00 62 1014.8
20260904042025 82 232 1.0 4.0 0.00 0.00 0.00 62 1014.8
20260904041024 82 246 1.0 3.0 0.00 0.00 0.00 62 1014.7
20260904040022 83 240 0.0 2.0 0.00 0.00 0.00 61 1014.7
20260904035020 84 297 1.0 3.0 0.00 0.00 0.00 60 1014.6
20260904034038 84 184 1.0 4.0 0.00 0.00 0.00 58 1014.7
20260904033016 85 259 1.0 4.0 0.00 0.00 0.00 57 1014.6
20260904032035 85 252 2.0 4.0 0.00 0.00 0.00 57 1014.7
20260904031032 85 289 1.0 4.0 0.00 0.00 0.00 56 1014.7
20260904030031 85 339 1.0 4.0 0.00 0.00 0.00 56 1014.6
20260904025029 86 235 2.0 4.0 0.00 0.00 0.00 55 1014.6
20260904024027 86 273 2.0 4.0 0.00 0.00 0.00 54 1014.5
20260904023025 86 183 2.0 5.0 0.00 0.00 0.00 54 1014.4
20260904022023 86 256 1.0 6.0 0.00 0.00 0.00 54 1014.2
20260904021021 87 196 1.0 3.0 0.00 0.00 0.00 53 1014.2
20260904020019 87 281 1.0 2.0 0.00 0.00 0.00 53 1014.0
20260904015017 88 297 1.0 2.0 0.00 0.00 0.00 52 1013.8
20260904014016 88 315 1.0 3.0 0.00 0.00 0.00 51 1013.6
20260904013054 88 249 2.0 7.0 0.00 0.00 0.00 50 1013.5
20260904012032 89 138 1.0 3.0 0.00 0.00 0.00 49 1013.4
20260904011030 89 297 1.0 3.0 0.00 0.00 0.00 49 1013.3
20260904010028 90 306 2.0 4.0 0.00 0.00 0.00 48 1013.2
20260904005026 90 271 2.0 4.0 0.00 0.00 0.00 46 1013.1
20260904004024 91 249 3.0 6.0 0.00 0.00 0.00 45 1013.2
20260904003022 92 224 3.0 6.0 0.00 0.00 0.00 44 1013.2
20260904002021 92 256 3.0 5.0 0.00 0.00 0.00 44 1013.1
20260904001019 93 267 2.0 5.0 0.00 0.00 0.00 43 1013.0
20260904000017 94 255 2.0 9.0 0.00 0.00 0.00 42 1013.0
20260903235015 95 267 3.0 6.0 0.00 0.00 0.00 40 1012.9
20260903234033 95 245 3.0 7.0 0.00 0.00 0.00 39 1012.8
20260903233032 96 243 3.0 6.0 0.00 0.00 0.00 38 1012.8
20260903232030 97 257 4.0 9.0 0.00 0.00 0.00 38 1012.8
20260903231027 98 243 2.0 6.0 0.00 0.00 0.00 37 1012.8
20260903230046 99 229 2.0 9.0 0.00 0.00 0.00 36 1012.7
20260903225024 99 273 2.0 6.0 0.00 0.00 0.00 36 1012.9
20260903224022 99 253 4.0 8.0 0.00 0.00 0.00 36 1012.8
20260903223100 100 260 4.0 8.0 0.00 0.00 0.00 35 1012.8
20260903222018 100 238 4.0 8.0 0.00 0.00 0.00 35 1012.7
20260903221016 101 247 5.0 10.0 0.00 0.00 0.00 35 1012.7
20260903220034 101 242 4.0 7.0 0.00 0.00 0.00 35 1012.9
20260903215033 100 242 5.0 10.0 0.00 0.00 0.00 35 1012.8
20260903214031 101 233 4.0 8.0 0.00 0.00 0.00 35 1012.9
20260903213029 101 270 4.0 6.0 0.00 0.00 0.00 36 1012.9
20260903212027 100 310 2.0 5.0 0.00 0.00 0.00 36 1013.1
20260903211025 101 255 4.0 7.0 0.00 0.00 0.00 35 1013.1
20260903210023 102 42 2.0 5.0 0.00 0.00 0.00 35 1013.1
20260903205022 102 256 3.0 7.0 0.00 0.00 0.00 34 1013.1
20260903204020 102 259 5.0 9.0 0.00 0.00 0.00 35 1013.2
20260903203018 101 254 5.0 9.0 0.00 0.00 0.00 35 1013.4
20260903202016 101 242 4.0 14.0 0.00 0.00 0.00 35 1013.3
20260903201034 100 245 6.0 10.0 0.00 0.00 0.00 36 1013.5
20260903200032 100 257 3.0 9.0 0.00 0.00 0.00 37 1013.7
20260903195030 100 240 4.0 9.0 0.00 0.00 0.00 37 1013.8
20260903194048 100 258 5.0 13.0 0.00 0.00 0.00 36 1013.9
20260903193026 100 240 5.0 11.0 0.00 0.00 0.00 36 1013.9
20260903192024 99 217 3.0 9.0 0.00 0.00 0.00 38 1014.2
20260903191023 99 245 3.0 7.0 0.00 0.00 0.00 39 1014.4
20260903190021 99 261 5.0 9.0 0.00 0.00 0.00 37 1014.4
20260903185019 98 251 5.0 11.0 0.00 0.00 0.00 38 1014.8
20260903184017 99 248 4.0 12.0 0.00 0.00 0.00 38 1014.7
20260903183035 98 270 3.0 7.0 0.00 0.00 0.00 40 1014.9
20260903182033 97 238 5.0 11.0 0.00 0.00 0.00 40 1014.9